Tracking 19794 objects as of 21-Jul-2019
HD Live streaming from Space Station
objects crossing your sky now

THORAD DELTA 1 DEB

Track THORAD DELTA 1 DEB now!
10-day predictions


NORAD ID: 8180
Int'l Code: 1974-089AW
Perigee: 1,427.5 km
Apogee: 1,601.6 km
Inclination: 100.9 °
Period: 116.1 minutes
Semi major axis: 7885 km
RCS: 0.1407 m2 (medium)
Launch date: November 15, 1974
Source: United States (US)
Launch site: AIR FORCE WESTERN TEST RANGE (AFWTR)

Note: This is SATELLITE DEBRIS
aabbcc
Your satellite tracking list
Your tracking list is empty




NASA's NSSDC Master Catalog

Two Line Element Set (TLE):
1  8180U 74089AW  19200.79863267 +.00000158 +00000-0 +14428-2 0  9990
2  8180 100.8622 152.2364 0110368 013.0878 053.6036 12.39816594020291
Source of the keplerian elements: AFSPC